Simultaneous Nadir Overpasses (SNOs) Predictions

Prediction of SNOs between GOES-17 and LANDSAT-8 Satellite Orbit:

Table of predicted SNOs for the next 14.0 days since TLE Epoch: 8/19/2023
Index Date Time (GOES-17) GOES-17 Lat,Lon LANDSAT-8 Lat,Lon Distance(km) Time Diff (sec)
1 08/20/2023 17:06:35 0.00,-104.71 -0.32,-103.29 161.73 80
2 08/21/2023 05:27:58 0.00,-104.70 -0.81,-108.48 430.26 80
3 08/22/2023 16:54:24 0.00,-104.71 -0.92,-100.33 497.81 80
4 08/23/2023 05:15:47 0.00,-104.70 -0.20,-105.52 94.38 80
5 08/25/2023 05:00:57 0.00,-104.69 0.48,-102.57 241.21 80
6 08/25/2023 17:22:12 -0.00,-104.70 0.66,-107.72 344.05 80
7 08/27/2023 17:10:01 -0.00,-104.69 0.02,-104.76 8.82 80
8 08/29/2023 17:00:30 -0.00,-104.68 -0.64,-101.81 326.68 80
9 08/30/2023 05:21:54 0.01,-104.67 -0.47,-107.00 264.81 80
10 09/01/2023 05:07:02 0.00,-104.66 0.14,-104.03 71.28 80
